#timestamp,LO_Frequency,Hit,StdDev 
1620216015.4,286047002.7,N
1620216035.3,286046998.2,N
1620216055.1,286047001.2,N
1620216056.0,286047001.2,N
1620216075.9,286047000.5,N
1620216095.7,286047001.8,N
1620216115.5,286047003.2,N
1620216135.4,286047003.6,N
1620216155.2,286047001.3,N
1620216175.0,286047000.9,N
1620216175.9,286047000.9,N
1620216195.8,286047000.4,N
1620216215.6,286047000.0,N
1620216235.5,286046999.2,N
1620216255.3,286047001.0,N
1620216275.1,286046998.1,N
1620216295.9,286047001.0,N
1620216315.7,286046998.7,N
1620216335.5,286046999.4,N
1620216355.4,286047001.1,N
1620216375.2,286046996.8,N
1620216395.1,286046998.0,N
1620216396.0,286046998.0,N
1620216415.8,286046997.2,N
1620216435.6,286046995.4,N
1620216455.5,286046995.8,N
1620216475.3,286046997.5,N
1620216495.2,286046996.8,N
1620216515.9,286046997.4,N
1620216535.7,286046997.3,N
1620216555.6,286046997.5,N
1620216575.4,286046995.5,N
1620216595.2,286046993.7,N
1620216615.1,286046994.2,N
1620216616.0,286046994.2,N
1620216635.8,286046995.5,N
1620216655.7,286046999.2,N
1620216675.5,286046996.5,N
1620216695.3,286046999.4,N
1620216715.2,286046998.5,N
1620216735.0,286046998.8,N
1620216735.9,286046998.8,N
1620216755.8,286046996.7,N
1620216775.6,286046997.0,N
1620216795.4,286046995.5,N
1620216815.3,286046995.6,N
1620216835.1,286046998.0,N
1620216855.9,286046996.5,N
1620216875.7,286046997.2,N
1620216895.5,286046997.6,N
1620216915.4,286046995.1,Y
1620216935.2,286047000.2,P
1620216955.0,286047004.2,N
1620216955.9,286047004.2,N
1620216975.8,286047003.4,N
1620216995.6,286047005.0,N
1620217015.5,286047003.4,N
1620217035.3,286047003.5,N
1620217055.1,286047000.3,N
1620217075.9,286047001.2,N
1620217095.7,286047000.9,N
1620217115.5,286046998.5,N
1620217135.4,286047002.8,N
1620217155.2,286047001.7,N
1620217175.1,286047002.8,N
1620217176.0,286047002.8,N
1620217195.8,286047004.3,N
1620217215.6,286047005.7,N
1620217235.5,286047005.5,N
1620217255.3,286047004.3,N
1620217275.1,286047002.3,N
1620217295.9,286047001.6,N
1620217345.8,286047002.1,E
1620217355.7,286047004.0,N
1620217375.5,286047001.6,P
1620217395.4,286047004.4,P
1620217415.2,286047001.8,N
1620217435.0,286047003.6,N
1620217435.9,286047003.6,Y
1620217455.8,286047001.1,P
1620217475.6,286046998.4,N
1620217495.4,286047000.9,N
1620217515.3,286046999.3,N
1620217535.1,286046999.6,N
1620217555.9,286047001.2,N
1620217575.7,286046998.7,N
1620217595.5,286046997.7,N
1620217615.4,286046995.7,N
1620217635.2,286046996.0,N
1620217655.0,286046996.4,N
1620217656.0,286046996.4,N
1620217675.8,286046993.5,N
1620217695.6,286046993.6,N
1620217715.5,286046995.8,N
1620217735.3,286046995.7,N
1620217755.1,286046997.9,N
1620217775.9,286046999.4,N
1620217795.7,286047000.7,N
1620217815.6,286046999.4,N
1620217835.4,286046996.7,N
1620217855.2,286046998.7,N
1620217875.1,286047001.1,N
1620217876.0,286047001.1,N
1620217895.8,286046996.9,N
1620217915.6,286046999.5,N
1620217935.5,286046998.8,N
1620217955.3,286047001.2,N
1620217975.2,286047000.8,N
1620217995.0,286046999.3,N
1620217995.9,286046999.3,N
1620218015.7,286046997.9,N
1620218035.6,286046999.5,N
1620218055.4,286046997.0,N
1620218075.3,286046996.8,N
1620218095.1,286046997.7,N
1620218096.0,286046997.7,N
1620218115.8,286047000.0,N
1620218135.7,286046998.3,N
1620218155.5,286046998.6,N
1620218175.3,286046999.8,N
1620218195.2,286047004.2,N
1620218215.0,286047001.4,N
1620218215.9,286047001.4,N
1620218235.8,286047001.6,N
1620218255.6,286047000.1,N
1620218275.4,286047002.6,N
1620218295.3,286047001.4,N
1620218315.1,286047002.4,N
1620218335.9,286046998.9,N
1620218355.7,286046999.6,N
1620218375.5,286046996.8,N
1620218395.4,286046998.3,N
1620218415.2,286047000.3,N
1620218435.0,286046998.1,N
1620218435.9,286046998.1,N
1620218455.8,286047000.0,N
1620218475.6,286047002.6,N
1620218495.5,286047002.4,N
1620218515.3,286046998.1,N
1620218535.1,286047001.1,N
1620218555.9,286046997.0,N
1620218575.7,286046998.2,N
1620218595.5,286046998.3,N
1620218615.4,286046998.5,N
1620218635.2,286046998.2,N
1620218655.0,286047000.2,N
1620218655.9,286047000.2,N
1620218675.8,286046998.8,N
1620218695.6,286046997.6,N
1620218715.5,286046996.4,N
1620218735.3,286046995.6,N
1620218755.1,286046997.3,N
1620218775.9,286046995.8,N
1620218795.7,286046996.0,N
1620218815.5,286046996.3,N
1620218835.4,286046993.5,Y
1620218855.2,286046998.9,P
1620218905.1,286047002.6,E
1620218915.0,286047000.2,N
1620218915.9,286047000.2,P
1620218935.8,286046996.6,P
1620218955.6,286046997.4,N
1620218975.4,286046995.7,N
1620218995.3,286046994.9,N
1620219015.1,286046996.0,N
1620219035.8,286046995.7,N
1620219055.7,286046995.3,N
1620219075.5,286046993.8,Y
1620219095.3,286046996.9,P
1620219115.2,286047000.5,P
1620219135.0,286046999.8,N
1620219135.9,286046999.8,N
1620219155.8,286047002.5,N
1620219175.6,286047001.7,N
1620219195.4,286047000.5,N
1620219215.3,286046999.3,N
1620219235.1,286047002.6,N
1620219255.8,286047002.2,N
1620219275.7,286047003.6,N
1620219295.5,286047005.6,N
1620219315.4,286047005.6,N
1620219335.2,286047002.5,N
1620219355.0,286047000.1,N
1620219355.9,286047000.1,N
1620219375.8,286046998.6,N
1620219395.6,286046999.4,N
1620219415.4,286046997.4,N
1620219435.3,286046996.9,N
1620219455.1,286046998.7,N
1620219475.9,286046999.7,N
1620219495.7,286046999.8,N
1620219515.5,286046999.0,N
1620219535.4,286046997.1,N
1620219555.2,286046996.1,N
1620219575.0,286046995.0,N
1620219575.9,286046995.0,N
1620219595.8,286046994.9,N
